STARLINK-1209 (45206 NORAD) Tracking and Keplerian Element Data

This shows tracking and keplerian element data for the satellite.

Feedback or suggestion? Click here.




ElementValue
Catalog45206
NameSTARLINK-1209
Epoch Orbit756
Epoch Day94.25001157
Epoch Year2020
RAAN38.6022
Inclination53.0024
Eccentricity0.0001666
Argument of Perigee85.8964
Mean Anonmoly313.9402
Mean Motion15.71962707
Decay Rate0.00051958
L11 45206U 20012AE 20094.25001157 .00051958 00000-0 39229-3 0 9994
L22 45206 53.0024 38.6022 0001666 85.8964 313.9402 15.71962707 7568

Live tracking and technical data element details for STARLINK-1209 (NORAD 45206). STARLINK-1209 can be tracked NOW for your location showing map with azimuth and elevation plus other details from your city location.

Track the satellite on the map from your city or location and see movement details for azimuth, elevation, latitude, longitude, range, height, and movement on the map or in text.







IsCatalogInMostPopularTable: catalog: 45206, numindb: 6
Update: records affected: 1



GetName: 45206 STARLINK-1209

Hit Count: updated at: Thu, 09 Apr 2020 10:55:27 GMT